Location: Unspecified
(43.4680°N, 87.1740°E)
Time: 21:25:21
(UTC+00:00)

Cosmos 2297 Rocket - Pass Details

Date: 17 January 2020
Orbit: 838 x 845 km, 71.0° (Epoch: 27 February)

Event Time Altitude Azimuth Distance (km) Brightness Sun altitude
Rises 14:17:26 0° 224° (SW) 3,381 5.8 -35.0°
Reaches altitude 10° 14:20:00 10° 232° (SW) 2,451 5.1 -35.4°
Enters shadow 14:24:01 36° 270° (W) 1,301 3.5 -36.2°
